TimeCDT,TemperatureF,Dew PointF,Humidity,Sea Level PressureIn,VisibilityMPH,Wind Direction,Wind SpeedMPH,Gust SpeedMPH,PrecipitationIn,Events,Conditions,WindDirDegrees,DateUTC
12:56 AM,73.9,60.1,62,29.96,10.0,NE,5.8,-,N/A,,Partly Cloudy,40,2013-09-15 05:56:00
1:56 AM,72.0,60.1,66,29.96,10.0,NE,5.8,-,N/A,,Clear,50,2013-09-15 06:56:00
2:56 AM,72.0,61.0,68,29.96,10.0,NE,5.8,-,N/A,,Clear,40,2013-09-15 07:56:00
3:56 AM,72.0,61.0,68,29.96,10.0,NE,4.6,-,N/A,,Clear,40,2013-09-15 08:56:00
4:56 AM,70.0,61.0,73,29.96,10.0,NE,4.6,-,N/A,,Clear,50,2013-09-15 09:56:00
5:56 AM,66.0,61.0,84,29.97,10.0,Calm,Calm,-,N/A,,Clear,0,2013-09-15 10:56:00
6:56 AM,69.1,61.0,75,29.98,10.0,North,5.8,-,N/A,,Clear,10,2013-09-15 11:56:00
7:56 AM,73.0,62.1,68,29.99,10.0,ENE,5.8,-,N/A,,Clear,60,2013-09-15 12:56:00
8:56 AM,79.0,64.0,60,30.01,10.0,ENE,4.6,-,N/A,,Clear,70,2013-09-15 13:56:00
9:56 AM,84.0,66.0,55,30.02,10.0,ESE,5.8,-,N/A,,Clear,110,2013-09-15 14:56:00
10:56 AM,88.0,66.9,49,30.02,10.0,SE,9.2,-,N/A,,Clear,130,2013-09-15 15:56:00
11:56 AM,89.1,68.0,50,30.02,10.0,South,5.8,-,N/A,,Clear,170,2013-09-15 16:56:00
12:56 PM,90.0,68.0,48,30.01,10.0,South,5.8,-,N/A,,Clear,170,2013-09-15 17:56:00
1:56 PM,90.0,69.1,50,29.99,10.0,Variable,6.9,-,N/A,,Scattered Clouds,0,2013-09-15 18:56:00
2:56 PM,91.0,69.1,48,29.97,10.0,Calm,Calm,-,N/A,,Clear,0,2013-09-15 19:56:00
3:56 PM,91.9,70.0,48,29.96,10.0,SSE,4.6,-,N/A,,Clear,150,2013-09-15 20:56:00
4:56 PM,89.1,72.0,57,29.96,10.0,SSW,5.8,-,N/A,,Partly Cloudy,210,2013-09-15 21:56:00
5:56 PM,87.1,72.0,61,29.97,10.0,South,9.2,-,N/A,,Partly Cloudy,170,2013-09-15 22:56:00
6:56 PM,82.0,72.0,71,29.98,10.0,South,4.6,-,N/A,,Partly Cloudy,190,2013-09-15 23:56:00
7:56 PM,81.0,72.0,74,30.00,10.0,South,4.6,-,N/A,,Partly Cloudy,170,2013-09-16 00:56:00
8:56 PM,80.1,72.0,76,30.02,10.0,Calm,Calm,-,N/A,,Mostly Cloudy,0,2013-09-16 01:56:00
9:56 PM,79.0,73.0,82,30.03,10.0,SSE,5.8,-,N/A,,Partly Cloudy,150,2013-09-16 02:56:00
10:56 PM,78.1,73.0,84,30.03,10.0,South,3.5,-,N/A,,Partly Cloudy,180,2013-09-16 03:56:00
11:56 PM,75.0,72.0,90,30.03,10.0,Calm,Calm,-,N/A,,Clear,0,2013-09-16 04:56:00